CZ-6A R/B, 62237

Orbit data source: Space-Track

CZ-6A R/B, 62237 is space debris in LEO originally from a launch on Thu, 05 Dec 2024 UTC via a CHANG ZHENG 6A launch vehicle from the Taiyaun Space Center, China (TSC). Debris objects in space refer to the collection of defunct objects orbiting the Earth. Examples of debris include non-operational satellites, rocket bodies, and fragments generated from explosions, collisions, or faulty payload assembly.

Loading next visibility...
Identifier
62237, 2024-232A
Orbit
LEO
Country
Flag of CNCN / PRC
Related business
Manufacturer
SAST
Mission
Spacecraft
Bus & Motor
CZ-6A STAGE 2, YF-115
Mass
~6,000 kg wet, ~6,000 kg dry
Launch date (UTC)
2024-12-05 (9 months ago)
Launch vehicle
CHANG ZHENG 6A
Launch site
Taiyaun Space Center, China (TSC)
Object type
Payload
Rocket body
Debris
Shape & HBR
Unknown shape, 5.5 m
Radar Cross Section
Large (>1 m²)

Expand to show TLE details & history
Last TLE update: 11 hours ago

TLE from 11 hours ago
0 CZ-6A R/B
1 62237U 24232A   25242.89512094  .00000493  00000-0  11212-3 0  9992
2 62237  89.0238  48.7408 0096062 275.6827  83.3433 14.51633854 87305
Epoch: 2025-08-30T21:28Z
TLE epoch observation values (Epoch: 2025-08-30T21:28:58.449Z)
Latitude
-0.00003°
Longitude
107.1744°
Altitude
716.157 km
Speed
7.501 km/s
True Right ascension
03h 14m 57s
True Declination
0° 00' 00"
Sunlit
Object was in daylight at epoch
Visualization orbit readout
Latitude
Unknown
Longitude
Unknown
Altitude
Unknown
Speed
Unknown
Apparent Right ascension
Unknown
Apparent Declination
Unknown
Sunlit
N/A
Visualization observer readout
Local Sidereal Time
23:50:47
Azimuth
Unknown
Elevation
Unknown
Doppler factor
Unknown
Orbital elements
Apogee altitude
785.382 km
Perigee altitude
649.063 km
Semi-major axis
7,095.36 km
Eccentricity
0.00961
Inclination
89.0238°
RAAN
48.7408°
Arg. of periapsis
275.6827°
True anomaly
84.43813°
Mean anomaly
83.3433°
Eccentric anomaly
83.89057°
Mean motion
3.63146 °/min
Orbital period
99.13 mins
BSTAR
0.00011212
Loading maneuver chart data...
Computing Atmospheric mass density...
Loading historical data...
Loading historical data...
Loading historical data...
Loading historical data...
Loading historical data...
Loading historical data...
Loading historical data...

Documentation

Showing up to 5 results
|